TimePDT,TemperatureF,Dew PointF,Humidity,Sea Level PressureIn,VisibilityMPH,Wind Direction,Wind SpeedMPH,Gust SpeedMPH,PrecipitationIn,Events,Conditions,WindDirDegrees,DateUTC
12:04 AM,33.8,28.4,81,29.82,2.0,SW,9.2,24.2,0.00,Snow,Light Snow,230,2013-04-29 07:04:00
12:12 AM,32.0,28.4,87,29.82,1.2,WSW,9.2,19.6,0.00,Snow,Light Snow,240,2013-04-29 07:12:00
12:20 AM,30.2,30.2,100,29.82,1.0,WSW,11.5,20.7,0.00,Snow,Light Snow,240,2013-04-29 07:20:00
12:38 AM,30.2,30.2,100,29.81,1.0,WSW,10.4,21.9,0.01,Snow,Light Snow,240,2013-04-29 07:38:00
12:46 AM,30.2,30.2,100,29.81,0.8,WSW,10.4,19.6,0.02,Snow,Light Snow,240,2013-04-29 07:46:00
12:53 AM,30.0,30.0,100,29.72,0.5,WSW,10.4,18.4,0.03,Fog-Snow,Snow,250,2013-04-29 07:53:00
1:03 AM,30.2,30.2,100,29.80,0.2,Variable,5.8,18.4,0.01,Fog-Snow,Snow,0,2013-04-29 08:03:00
1:53 AM,30.0,30.0,100,29.67,0.2,SW,9.2,21.9,0.07,Fog-Snow,Snow,230,2013-04-29 08:53:00
2:53 AM,28.9,28.9,100,29.64,0.2,Variable,3.5,-,0.08,Fog-Snow,Snow,0,2013-04-29 09:53:00
3:35 AM,28.4,28.4,100,29.72,0.5,Variable,6.9,17.3,0.06,Fog-Snow,Snow,0,2013-04-29 10:35:00
3:53 AM,28.0,28.0,100,29.61,0.5,WSW,9.2,-,0.07,Fog-Snow,Snow,240,2013-04-29 10:53:00
4:53 AM,28.0,28.0,100,29.58,0.5,WSW,10.4,24.2,0.04,Fog-Snow,Snow,240,2013-04-29 11:53:00
5:53 AM,28.9,28.9,100,29.57,0.8,Variable,6.9,19.6,0.05,Snow,Light Snow,0,2013-04-29 12:53:00
6:15 AM,28.4,28.4,100,29.65,0.2,WSW,10.4,16.1,0.04,Fog-Snow,Light Snow,240,2013-04-29 13:15:00
6:53 AM,30.0,28.9,96,29.54,0.2,WSW,9.2,23.0,0.09,Fog-Snow,Light Snow,240,2013-04-29 13:53:00
7:06 AM,30.2,28.4,93,29.64,0.8,Variable,6.9,25.3,0.01,Snow,Light Snow,0,2013-04-29 14:06:00
7:31 AM,30.2,28.4,93,29.64,0.2,WNW,10.4,24.2,0.07,Fog-Snow,Light Snow,290,2013-04-29 14:31:00
7:36 AM,30.2,28.4,93,29.64,1.0,West,10.4,24.2,0.07,Snow,Light Snow,280,2013-04-29 14:36:00
7:45 AM,30.2,28.4,93,29.64,2.0,West,8.1,23.0,0.07,Snow,Light Snow,270,2013-04-29 14:45:00
7:50 AM,30.2,28.4,93,29.63,1.2,West,10.4,23.0,0.08,Snow,Light Snow,270,2013-04-29 14:50:00
7:53 AM,30.0,28.9,96,29.54,1.0,West,8.1,19.6,0.08,Snow,Light Snow,280,2013-04-29 14:53:00
8:00 AM,30.2,28.4,93,29.63,0.8,West,12.7,26.5,0.00,Snow,Light Snow,280,2013-04-29 15:00:00
8:13 AM,28.4,28.4,100,29.63,0.2,WNW,8.1,20.7,0.04,Fog-Snow,Snow,300,2013-04-29 15:13:00
8:53 AM,28.0,27.0,96,29.53,0.5,North,-9999.0,-,0.12,Fog-Snow,Light Snow,0,2013-04-29 15:53:00
9:10 AM,28.4,26.6,93,29.62,0.5,North,-9999.0,-,0.02,Fog-Snow,Light Snow,0,2013-04-29 16:10:00
9:19 AM,26.6,24.8,93,29.62,1.0,North,-9999.0,-,0.02,Snow,Light Snow,0,2013-04-29 16:19:00
9:27 AM,28.4,24.8,86,29.62,2.0,North,-9999.0,-,0.02,Snow,Light Snow,0,2013-04-29 16:27:00
9:38 AM,26.6,24.8,93,29.62,3.0,North,-9999.0,-,0.02,Snow,Light Snow,0,2013-04-29 16:38:00
9:48 AM,26.6,24.8,93,29.63,2.5,WNW,19.6,42.6,0.02,Snow,Light Snow,290,2013-04-29 16:48:00
9:53 AM,27.0,24.1,89,29.54,1.5,West,18.4,42.6,0.02,Snow,Light Snow,280,2013-04-29 16:53:00
9:59 AM,28.4,24.8,86,29.63,3.0,West,9.2,38.0,0.00,Snow,Light Snow,270,2013-04-29 16:59:00
10:53 AM,28.0,25.0,88,29.56,2.5,West,8.1,25.3,0.00,Snow,Light Snow,270,2013-04-29 17:53:00
10:56 AM,28.4,24.8,86,29.65,1.8,West,12.7,25.3,0.00,Snow,Light Snow,270,2013-04-29 17:56:00
11:01 AM,28.4,24.8,86,29.65,2.0,West,13.8,35.7,0.00,Snow,Light Snow,280,2013-04-29 18:01:00
11:12 AM,28.4,24.8,86,29.65,1.5,West,9.2,33.4,0.00,Snow,Light Snow,260,2013-04-29 18:12:00
11:21 AM,28.4,24.8,86,29.65,3.0,West,9.2,24.2,0.00,Snow,Light Snow,280,2013-04-29 18:21:00
11:39 AM,28.4,23.0,80,29.66,1.8,West,16.1,35.7,0.01,Snow,Light Snow,280,2013-04-29 18:39:00
11:46 AM,28.4,24.8,86,29.67,1.2,West,8.1,27.6,0.01,Snow,Light Snow,260,2013-04-29 18:46:00
11:50 AM,30.2,24.8,80,29.66,2.5,West,9.2,18.4,0.01,Snow,Light Snow,270,2013-04-29 18:50:00
11:53 AM,30.0,24.1,79,29.57,7.0,WSW,11.5,19.6,0.01,Snow,Light Snow,250,2013-04-29 18:53:00
12:53 PM,30.9,19.0,61,29.59,-9999.0,West,15.0,32.2,0.00,,Mostly Cloudy,270,2013-04-29 19:53:00
1:53 PM,33.1,15.1,48,29.59,10.0,WSW,12.7,23.0,0.00,,Mostly Cloudy,240,2013-04-29 20:53:00
2:53 PM,33.1,12.0,42,29.61,10.0,West,8.1,31.1,0.00,,Overcast,260,2013-04-29 21:53:00
3:53 PM,30.9,14.0,50,29.64,10.0,NW,8.1,21.9,N/A,,Overcast,320,2013-04-29 22:53:00
4:53 PM,30.0,12.9,49,29.80,10.0,WSW,10.4,19.6,N/A,,Overcast,250,2013-04-29 23:53:00
5:20 PM,26.6,21.2,80,29.74,2.5,NNW,9.2,20.7,0.00,Snow,Light Snow,330,2013-04-30 00:20:00
5:28 PM,26.6,21.2,80,29.74,4.0,NW,9.2,19.6,0.00,Snow,Light Snow,320,2013-04-30 00:28:00
5:32 PM,26.6,21.2,80,29.75,1.0,NW,6.9,19.6,0.01,Snow,Light Snow,320,2013-04-30 00:32:00
5:38 PM,26.6,21.2,80,29.75,0.2,WNW,13.8,23.0,0.01,Fog-Snow,Light Snow,300,2013-04-30 00:38:00
5:53 PM,26.1,23.0,88,29.84,0.5,Variable,6.9,20.7,0.01,Fog-Snow,Light Snow,0,2013-04-30 00:53:00
5:58 PM,26.6,21.2,80,29.75,2.0,West,8.1,-,0.00,Snow,Light Snow,280,2013-04-30 00:58:00
6:06 PM,24.8,21.2,86,29.75,1.2,WNW,11.5,26.5,0.00,Snow,Light Snow,300,2013-04-30 01:06:00
6:13 PM,24.8,21.2,86,29.75,-9999.0,SW,10.4,26.5,0.00,Snow,Snow,230,2013-04-30 01:13:00
6:40 PM,24.8,21.2,86,29.76,-9999.0,Variable,6.9,18.4,0.00,Snow,Snow,0,2013-04-30 01:40:00
6:53 PM,24.1,23.0,96,29.86,-9999.0,Variable,5.8,19.6,0.01,Snow,Snow,0,2013-04-30 01:53:00
7:03 PM,24.8,23.0,93,29.77,-9999.0,Variable,6.9,19.6,0.00,Snow,Light Snow,0,2013-04-30 02:03:00
7:24 PM,24.8,23.0,93,29.78,-9999.0,NNW,6.9,-,0.02,Snow,Heavy Snow,330,2013-04-30 02:24:00
7:36 PM,24.8,23.0,93,29.78,-9999.0,NW,4.6,-,0.03,Snow,Snow,320,2013-04-30 02:36:00
7:53 PM,24.1,23.0,96,29.88,-9999.0,NNW,6.9,-,0.04,Snow,Snow,330,2013-04-30 02:53:00
8:19 PM,23.0,21.2,93,29.80,-9999.0,WNW,9.2,18.4,0.00,Snow,Snow,290,2013-04-30 03:19:00
8:28 PM,23.0,21.2,93,29.80,-9999.0,Variable,6.9,18.4,0.00,Snow,Light Snow,0,2013-04-30 03:28:00
8:38 PM,23.0,21.2,93,29.80,0.2,Variable,6.9,23.0,0.01,Fog-Snow,Snow,0,2013-04-30 03:38:00
8:45 PM,23.0,21.2,93,29.80,1.0,Variable,5.8,-,0.01,Snow,Light Snow,0,2013-04-30 03:45:00
8:50 PM,23.0,21.2,93,29.81,2.0,Variable,4.6,-,0.01,Snow,Light Snow,0,2013-04-30 03:50:00
8:53 PM,23.0,21.9,96,29.91,2.0,Variable,5.8,-,0.01,Snow,Light Snow,0,2013-04-30 03:53:00
9:05 PM,23.0,21.2,93,29.81,1.8,Variable,4.6,-,0.00,Snow,Light Snow,0,2013-04-30 04:05:00
9:08 PM,23.0,21.2,93,29.81,1.2,Variable,6.9,-,0.00,Snow,Light Snow,0,2013-04-30 04:08:00
9:15 PM,23.0,21.2,93,29.81,0.8,Variable,5.8,-,0.00,Snow,Light Snow,0,2013-04-30 04:15:00
9:32 PM,23.0,21.2,93,29.81,1.2,Variable,4.6,-,0.02,Snow,Light Snow,0,2013-04-30 04:32:00
9:35 PM,23.0,21.2,93,29.81,2.5,SW,5.8,-,0.02,Snow,Light Snow,220,2013-04-30 04:35:00
9:42 PM,23.0,21.2,93,29.81,9.0,Calm,Calm,-,0.02,,Overcast,0,2013-04-30 04:42:00
9:51 PM,23.0,21.2,93,29.81,2.5,Variable,3.5,-,0.02,Snow,Light Snow,0,2013-04-30 04:51:00
9:53 PM,23.0,21.0,92,29.93,1.2,Variable,4.6,-,0.02,Snow,Light Snow,0,2013-04-30 04:53:00
10:00 PM,23.0,21.2,93,29.81,0.5,SW,8.1,-,0.01,Fog-Snow,Snow,220,2013-04-30 05:00:00
10:04 PM,21.2,21.2,100,29.81,0.2,WSW,9.2,-,0.02,Fog-Snow,Heavy Snow,240,2013-04-30 05:04:00
10:16 PM,21.2,21.2,100,29.81,0.2,West,4.6,-,0.05,Fog-Snow,Heavy Snow,270,2013-04-30 05:16:00
10:38 PM,21.2,21.2,100,29.81,0.5,Variable,5.8,-,0.07,Fog-Snow,Light Snow,0,2013-04-30 05:38:00
10:42 PM,21.2,21.2,100,29.81,1.0,Variable,4.6,-,0.07,Snow,Light Snow,0,2013-04-30 05:42:00
10:46 PM,21.2,21.2,100,29.81,1.5,Variable,3.5,-,0.07,Snow,Light Snow,0,2013-04-30 05:46:00
10:53 PM,21.9,21.9,100,29.93,1.5,NW,3.5,-,0.07,Snow,Light Snow,310,2013-04-30 05:53:00
10:56 PM,21.2,21.2,100,29.82,0.8,Calm,Calm,-,0.01,Snow,Light Snow,0,2013-04-30 05:56:00
11:04 PM,21.2,21.2,100,29.82,0.5,NW,4.6,-,0.01,Fog-Snow,Snow,310,2013-04-30 06:04:00
11:18 PM,21.2,21.2,100,29.81,0.5,Variable,3.5,-,0.02,Fog-Snow,Snow,0,2013-04-30 06:18:00
11:53 PM,21.9,21.0,96,29.92,0.8,Variable,3.5,-,0.03,,Overcast,0,2013-04-30 06:53:00
11:55 PM,21.2,19.4,93,29.82,1.5,Variable,3.5,-,N/A,,Overcast,0,2013-04-30 06:55:00
11:57 PM,21.2,19.4,93,29.82,4.0,Calm,Calm,-,N/A,,Overcast,0,2013-04-30 06:57:00